This demonstration page uses our WeatherBlox Daily Observations layout. Learn more.

Left ArrowRight Arrow

Hourly Observations for January 19, 2019

Temp ( °F °C ) Dew Point ( °F °C ) Humidity (%) Winds ( mph kmh ) Pressure ( in mb ) Visibility ( mi km ) Precip ( " mm )
12:59 am 00:59 Cloudy 43 6.1 36 2.2 76 76 NE 8 13 30.20 1023 10 16 0.00 0.00
1:59 am 01:59 Cloudy 43 6.1 37 2.8 80 80 E 9 15 30.20 1023 8 13 0.00 0.00
2:59 am 02:59 Cloudy 43 6.1 39 3.9 86 86 ENE 3 6 30.20 1023 7 11 0.00 0.00
3:59 am 03:59 Cloudy 44 6.7 38 3.3 79 79 E 5 7 30.20 1023 9 14 0.00 0.00
4:59 am 04:59 Cloudy 43 6.1 38 3.3 82 82 ENE 8 13 30.18 1022 8 13 0.00 0.00
5:59 am 05:59 Mostly Cloudy 43 6.1 37 2.8 80 80 ENE 6 9 30.19 1023 9 14 0.00 0.00
6:59 am 06:59 Cloudy 43 6.1 38 3.3 82 82 E 7 11 30.19 1022 9 14 0.00 0.00
7:59 am 07:59 Cloudy 44 6.7 39 3.9 83 83 E 8 13 30.18 1022 8 13 0.00 0.00
8:59 am 08:59 Cloudy 45 7.2 40 4.4 83 83 E 10 17 30.17 1022 9 14 0.00 0.00
9:59 am 09:59 Cloudy 48 8.9 40 4.4 74 74 E 9 15 30.18 1022 10 16 0.00 0.00
10:59 am 10:59 Cloudy 49 9.4 40 4.4 71 71 E 10 17 30.18 1022 10 16 0.00 0.00
11:59 am 11:59 Cloudy 50 10 41 5 71 71 ESE 10 17 30.14 1021 10 16 0.00 0.00
12:59 pm 12:59 Cloudy 51 10.6 40 4.4 66 66 ESE 12 19 30.09 1019 10 16 0.00 0.00
1:59 pm 13:59 Cloudy 52 11.1 40 4.4 64 64 ESE 14 22 30.06 1018 10 16 0.00 0.00
2:59 pm 14:59 Cloudy 52 11.1 41 5 66 66 ESE 12 19 30.02 1017 10 16 0.00 0.00
3:59 pm 15:59 Cloudy 52 11.1 41 5 66 66 ESE 8 13 29.99 1016 10 16 0.00 0.00
4:59 pm 16:59 Cloudy 51 10.6 41 5 69 69 ESE 9 15 29.94 1014 10 16 0.00 0.00
5:59 pm 17:59 Cloudy 51 10.6 43 6.1 74 74 SE 12 19 29.90 1013 10 16 0.00 0.00
6:59 pm 18:59 Mostly Cloudy 53 11.7 46 7.8 77 77 SE 13 20 29.86 1011 10 16 0.00 0.00
7:11 pm 19:11 Cloudy 53 11.7 47 8.3 80 80 SE 10 17 29.85 1011 10 16 0.00 0.00
7:59 pm 19:59 Cloudy 54 12.2 49 9.4 83 83 SSE 9 15 29.83 1010 10 16 0.00 0.00
8:59 pm 20:59 Cloudy 55 12.8 52 11.1 90 90 SE 12 19 29.76 1008 10 16 0.00 0.00
9:59 pm 21:59 Cloudy 56 13.3 53 11.7 90 90 SSE 9 15 29.72 1007 10 16 0.00 0.00
10:59 pm 22:59 Cloudy 56 13.3 54 12.2 93 93 SSE 10 17 29.70 1006 10 16 0.00 0.00
11:14 pm 23:14 Cloudy 56 13.3 54 12.2 93 93 SSE 9 15 29.68 1005 10 16 0.00 0.00
11:59 pm 23:59 Cloudy 57 13.9 54 12.2 90 90 SSE 10 17 29.68 1005 10 16 0.00 0.00

Powered by AerisWeather